Location: Lafig�re
(44.4503°N, 4.0357°E)
Time: 16:43:08
(UTC+00:00)

Milstar 3 Cent rocket - Pass Details

Date: 24 September 2020
Orbit: 707 x 5145 km, 28.3° (Epoch: 25 October)

Event Time Altitude Azimuth Distance (km) Brightness Sun altitude
Rises 19:22:34 0° 241° (WSW) 4,727 6.7 -19.4°
Reaches altitude 10° 19:27:28 10° 223° (SW) 3,077 5.4 -20.2°
Maximum altitude 19:31:38 17° 185° (S) 2,160 4.2 -20.9°
Enters shadow 19:32:40 16° 172° (S) 2,110 4.0 -21.1°
